Temp
48 42 40 47 51 52 49 48 44 51 58 58 57 58 61 63 64 66 68 70 72 73 74 71 73 72 68 67 65 64 63 62 63 63 62 62 64 64 64 65 67 67 67 67
43 39 48 50 50 49 46 43 41 49 56 52 52 50 55 58 60 62 65 67 67 68 66 71 72 68 66 66 65 64 63 62 63 64 62 63 62 63 64 65 67 68 67 67
37 45 53 51 47 45 44 43 43 44 51 53 49 49 52 58 60 63 65 65 65 67 65 69 70 68 67 65 65 65 63 63 64 64 63 61 62 63 62 63 64 66 67 67
40 48 48 44 45 46 39 49 50 48 44 37 49 38 49 56 57 60 64 66 67 63 66 69 66 67 67 67 64 64 63 64 65 64 64 65 62 62 62 62 64 65 67 66
40 41 43 43 45 49 43 51 47 47 42 39 41 36 44 50 51 57 62 65 67 65 68 65 66 68 67 64 62 63 64 64 64 64 65 64 62 61 61 62 63 63 64 65
43 49 47 46 51 51 52 46 43 42 38 29 39 39 43 49 54 58 61 63 62 62 63 63 64 63 62 61 62 63 63 62 63 64 64 63 62 61 61 61 61 61 62 63
40 43 47 52 43 46 43 35 26 25 25 29 43 39 46 51 55 56 58 59 60 61 61 61 62 61 60 60 61 63 63 61 63 63 63 63 62 62 62 61 60 60 60 61
32 29 43 50 45 40 38 36 27 24 24 30 43 35 44 56 63 65 65 61 60 60 60 61 62 60 59 61 62 63 62 61 62 62 62 62 62 62 61 61 61 61 61 62
31 34 47 50 49 48 40 33 40 33 33 29 34 41 52 58 60 60 58 59 59 60 60 62 61 58 60 61 61 62 62 61 61 61 61 61 61 61 61 61 61 61 61 62
38 33 45 49 50 48 43 47 34 29 26 25 32 36 40 48 52 60 57 56 58 60 60 59 57 59 61 61 61 62 63 62 61 61 62 62 62 62 62 61 61 61 61 62
39 34 36 42 39 39 38 35 37 34 31 27 27 33 46 51 53 53 54 56 57 57 55 56 60 61 61 61 62 61 62 62 61 62 61 61 61 62 62 62 62 62 62 62
38 32 28 34 42 45 40 36 36 30 31 35 30 32 50 51 52 52 53 59 61 56 56 60 62 61 61 61 61 61 62 62 62 62 61 61 61 61 61 61 62 62 62 63
38 30 24 30 35 40 35 39 38 35 33 29 31 34 53 54 56 55 54 59 59 56 56 61 61 61 61 61 62 62 63 62 62 62 61 60 60 60 61 62 61 62 62 62
43 32 28 23 30 35 32 37 39 34 28 33 36 40 49 53 54 53 56 58 56 57 57 60 61 61 61 62 63 63 61 62 62 62 61 60 60 61 61 62 61 62 63 63
38 31 34 34 36 37 36 35 37 34 37 32 38 40 45 48 51 54 56 58 59 57 57 58 59 59 61 61 63 63 63 62 62 62 61 61 61 61 62 62 62 63 63 64
37 31 31 31 37 37 34 37 38 38 38 38 39 38 49 53 56 55 57 58 59 60 60 60 61 61 61 62 63 63 62 62 62 61 61 61 61 61 61 61 62 62 62 63
35 33 31 25 35 35 27 35 37 39 41 40 34 42 49 50 52 54 56 58 59 60 61 61 62 63 63 63 64 62 62 61 62 62 63 63 62 62 61 62 61 61 60 60
34 31 33 26 26 20 38 44 43 41 42 44 45 47 50 52 51 54 56 57 58 62 63 63 64 64 64 65 64 62 62 62 62 63 63 63 63 62 61 61 60 59 59 59
39 36 30 24 23 33 40 40 38 37 38 45 45 47 50 53 51 52 59 61 59 62 65 65 66 65 64 64 63 63 62 62 63 63 63 64 64 62 61 60 59 58 58 58
40 39 32 29 24 23 32 38 41 41 34 45 47 46 49 49 43 50 57 60 61 64 65 65 65 66 64 63 64 62 61 62 62 63 64 65 64 62 61 60 59 59 60 59
32 32 28 29 27 32 37 40 41 32 34 45 47 47 48 45 48 50 55 57 61 64 66 66 66 65 64 62 63 62 61 62 65 66 65 64 63 62 61 60 60 59 60 59
31 30 31 31 28 26 43 38 32 37 41 45 47 48 47 49 50 52 56 58 61 64 65 67 66 64 62 64 64 61 61 64 65 65 65 63 62 64 62 60 59 59 60 59
30 35 33 32 32 41 44 38 40 42 43 46 46 48 48 49 49 53 55 58 61 62 63 66 66 62 62 64 65 62 63 64 64 64 63 62 62 61 61 59 60 59 59 58
38 41 36 38 41 43 44 46 45 46 45 48 49 49 50 49 52 54 55 58 60 61 63 66 64 63 61 64 65 66 62 65 65 62 61 61 61 59 60 61 62 61 59 59
37 38 39 39 43 44 46 46 46 47 48 49 49 50 50 51 54 55 55 58 62 64 63 65 66 64 64 65 64 63 65 65 63 62 61 61 60 60 59 61 59 61 61 59
38 38 37 36 43 42 43 47 48 46 47 48 48 49 52 54 56 57 56 59 61 63 64 63 64 64 65 67 65 64 66 66 63 61 62 61 61 60 60 58 56 43 45 48
MSLP
1008.60 1008.20 1006.74 1005.16 1005.53 1006.31 1006.44 1006.32 1005.88 1005.24 1005.02 1004.63 1004.05 1002.96 1003.06 1003.05 1002.55 1002.25 1001.85 1001.38 1000.87 1000.59 1000.17 1000.09 999.89 999.67 999.64 999.39 999.49 999.19 999.39 999.83 1000.21 1001.23 1002.29 1002.68 1003.10 1003.58 1004.13 1004.46 1004.79 1005.15 1005.50 1006.02
1008.82 1007.03 1006.84 1006.73 1006.81 1006.80 1006.84 1006.81 1006.52 1006.09 1005.48 1005.03 1004.79 1003.83 1003.74 1003.26 1002.48 1001.99 1001.44 1000.97 1000.82 1000.56 1000.31 999.98 999.56 999.29 999.41 999.38 998.86 998.76 999.12 999.51 999.65 1000.48 1001.24 1001.72 1002.60 1003.30 1003.66 1004.12 1004.49 1004.93 1005.32 1005.66
1008.73 1007.38 1006.74 1006.69 1006.55 1006.80 1006.84 1006.99 1006.91 1006.76 1006.20 1005.51 1005.40 1003.86 1003.27 1002.47 1001.91 1001.32 1000.66 1000.35 1000.16 1000.08 1000.14 999.76 999.23 998.91 998.75 998.79 998.54 998.56 998.79 999.15 999.55 1000.26 1000.89 1001.70 1002.37 1003.13 1003.69 1004.14 1004.48 1004.79 1005.11 1005.51
1008.06 1006.94 1006.67 1006.53 1006.46 1006.65 1006.88 1006.87 1006.96 1007.08 1007.41 1006.84 1005.78 1003.78 1002.93 1002.00 1001.26 1000.80 1000.07 999.59 999.34 999.75 999.56 998.99 998.77 998.63 998.18 997.84 997.99 998.14 998.61 999.02 999.39 999.81 1000.57 1001.11 1001.82 1002.89 1003.08 1003.57 1004.17 1004.71 1005.06 1005.42
1007.35 1006.65 1006.37 1006.25 1006.33 1006.40 1006.58 1006.74 1007.30 1007.50 1007.72 1007.51 1006.89 1006.28 1001.38 1001.36 1000.26 999.46 999.00 998.49 998.45 998.80 998.40 998.28 998.11 998.03 997.70 997.82 998.01 998.25 998.59 998.90 999.33 999.68 1000.50 1001.09 1001.92 1002.44 1002.91 1003.70 1004.34 1004.81 1005.14 1005.32
1007.02 1006.48 1006.20 1005.82 1005.85 1006.08 1006.23 1006.87 1007.85 1008.34 1008.70 1007.96 1006.83 1006.79 1000.32 1000.64 999.01 998.27 998.18 998.07 998.06 998.15 998.17 997.67 997.43 997.61 997.64 997.92 998.20 998.43 998.69 999.14 999.54 1000.01 1000.65 1001.02 1001.80 1002.59 1003.40 1004.03 1004.57 1005.00 1005.34 1005.53
1007.00 1006.56 1005.95 1005.80 1006.12 1006.22 1006.51 1007.22 1008.81 1009.73 1009.38 1007.36 1006.18 1006.17 1000.44 999.03 998.23 998.17 998.13 997.91 997.94 997.89 997.98 997.56 997.38 997.57 997.77 998.09 998.35 998.70 999.01 999.44 999.89 1000.27 1000.86 1001.37 1001.86 1002.50 1003.31 1003.95 1004.54 1005.09 1005.45 1005.77
1007.44 1006.95 1005.94 1005.40 1005.76 1006.16 1006.70 1007.48 1007.84 1008.23 1008.12 1007.08 1006.21 1004.16 999.72 998.74 997.98 997.91 998.02 998.09 997.93 997.84 997.63 997.15 996.83 997.05 997.64 998.09 998.35 998.67 999.24 999.68 1000.05 1000.59 1001.17 1001.57 1002.02 1002.69 1003.32 1003.75 1004.34 1004.86 1005.28 1005.55
1008.53 1007.25 1006.31 1005.59 1005.35 1005.79 1006.48 1007.15 1007.29 1007.93 1007.78 1007.28 1005.08 1002.23 999.98 998.82 998.05 997.69 998.13 998.20 998.01 997.59 996.91 996.44 996.13 996.62 997.16 997.79 998.25 998.61 999.30 999.99 1000.36 1000.84 1001.26 1001.73 1002.27 1002.81 1003.34 1003.94 1004.30 1004.83 1005.22 1005.54
1009.19 1008.06 1007.26 1006.34 1005.75 1005.64 1005.87 1006.28 1007.32 1008.24 1008.03 1007.10 1004.52 1002.60 1000.43 998.75 998.39 997.73 998.35 998.43 997.91 997.13 996.72 996.10 996.00 996.42 997.07 997.67 998.19 998.78 999.38 999.98 1000.61 1001.16 1001.65 1002.06 1002.50 1003.01 1003.47 1003.91 1004.44 1004.84 1005.26 1005.50
1009.58 1009.44 1008.24 1007.48 1006.88 1006.43 1006.53 1006.61 1007.07 1007.44 1007.43 1006.48 1004.87 1001.84 999.41 998.26 998.28 998.81 998.88 998.39 998.11 997.43 996.78 996.38 996.39 996.73 997.30 997.80 998.31 998.99 999.66 1000.26 1001.04 1001.57 1002.03 1002.38 1002.80 1003.26 1003.69 1004.09 1004.49 1004.93 1005.23 1005.56
1010.38 1010.27 1009.71 1008.66 1007.46 1007.29 1007.36 1007.43 1007.56 1007.66 1007.27 1006.17 1005.40 1002.45 999.38 998.86 998.79 998.81 998.72 998.12 997.71 997.45 997.22 996.98 997.17 997.28 997.66 998.09 998.57 999.12 999.87 1000.49 1001.21 1001.74 1002.27 1002.72 1003.06 1003.51 1003.97 1004.29 1004.65 1004.95 1005.27 1005.57
1010.66 1010.63 1010.45 1009.16 1008.43 1007.89 1007.83 1007.82 1007.88 1007.78 1007.47 1005.99 1005.16 1001.14 999.41 998.70 998.44 998.71 998.86 998.31 998.07 997.83 997.46 997.51 997.63 997.93 998.11 998.26 998.77 999.37 1000.06 1000.77 1001.39 1001.90 1002.39 1002.99 1003.40 1003.73 1004.03 1004.35 1004.70 1004.98 1005.30 1005.65
1010.85 1010.99 1010.64 1010.00 1009.18 1008.62 1008.47 1008.15 1008.03 1008.02 1007.41 1005.77 1003.08 1002.52 1000.87 999.67 999.32 999.16 998.86 998.58 998.17 997.90 997.99 997.79 998.03 998.34 998.55 998.48 998.94 999.65 1000.30 1000.96 1001.56 1002.08 1002.55 1003.10 1003.51 1003.75 1004.09 1004.39 1004.71 1004.90 1005.20 1005.59
1010.80 1010.84 1010.70 1010.13 1009.48 1008.94 1008.57 1008.05 1007.61 1007.53 1006.69 1005.73 1002.99 1002.78 1002.37 1000.69 1000.21 999.72 999.25 998.57 997.92 997.84 998.01 997.79 997.99 998.40 998.67 998.90 999.13 999.82 1000.34 1001.05 1001.54 1002.17 1002.70 1003.21 1003.62 1003.95 1004.20 1004.46 1004.73 1004.92 1005.20 1005.52
1010.89 1010.72 1010.52 1009.77 1008.95 1008.39 1007.82 1007.16 1006.86 1006.47 1005.70 1004.16 1003.86 1002.58 1002.86 1001.69 999.77 999.50 998.92 998.40 997.67 997.36 997.27 997.36 997.59 997.98 998.45 999.04 999.12 999.83 1000.47 1001.09 1001.47 1002.17 1002.76 1003.27 1003.75 1004.12 1004.27 1004.48 1004.73 1005.02 1005.43 1005.65
1011.07 1010.91 1010.67 1009.50 1008.47 1007.92 1007.06 1005.59 1005.34 1004.51 1003.88 1003.25 1002.46 1002.35 1002.52 1001.56 1000.05 999.06 998.31 997.72 997.17 996.54 996.39 996.56 996.95 997.35 998.11 998.77 999.01 999.66 1000.38 1001.02 1001.64 1002.23 1002.77 1003.27 1003.78 1004.05 1004.28 1004.58 1004.94 1005.35 1005.72 1005.89
1010.13 1010.35 1010.42 1009.56 1008.96 1007.79 1005.01 1004.32 1004.03 1003.29 1002.24 1001.91 1001.95 1001.75 1001.29 1000.55 999.92 998.93 998.36 997.87 996.81 995.98 995.65 995.91 996.24 997.07 997.73 998.60 999.15 999.65 1000.40 1001.03 1001.70 1002.28 1002.73 1003.29 1003.71 1004.01 1004.30 1004.78 1005.22 1005.61 1005.95 1006.17
1009.43 1009.65 1009.81 1009.34 1008.33 1006.36 1005.03 1005.16 1004.97 1004.35 1002.49 1001.76 1001.47 1001.46 1000.97 1000.35 999.89 997.59 997.16 996.79 995.94 995.23 994.95 995.28 995.90 996.67 997.53 998.45 999.03 999.64 1000.47 1001.05 1001.64 1002.18 1002.69 1003.15 1003.53 1003.95 1004.44 1004.96 1005.38 1005.79 1006.11 1006.39
1008.58 1008.92 1009.19 1008.60 1007.89 1006.60 1006.04 1006.15 1005.80 1005.01 1003.07 1002.08 1001.60 1001.28 1000.84 1000.62 999.82 997.10 996.21 995.78 995.24 994.43 994.43 994.88 995.59 996.46 997.42 998.45 998.97 999.66 1000.39 1000.95 1001.48 1001.98 1002.44 1002.90 1003.40 1003.94 1004.51 1004.91 1005.39 1005.82 1006.23 1006.49
1008.19 1008.49 1008.04 1007.56 1007.06 1006.46 1006.19 1005.95 1005.81 1004.94 1004.01 1002.46 1001.69 1001.31 1000.95 1000.42 999.41 997.96 996.69 995.78 994.77 994.09 993.94 994.58 995.37 996.28 997.29 998.24 998.88 999.69 1000.24 1000.75 1001.07 1001.70 1002.28 1002.83 1003.39 1003.99 1004.48 1004.94 1005.38 1005.86 1006.28 1006.55
1008.54 1007.88 1007.48 1007.08 1006.44 1006.02 1005.67 1005.93 1005.92 1004.97 1003.43 1002.45 1001.67 1001.17 1000.74 1000.02 998.75 997.47 996.18 995.15 994.53 993.89 994.09 994.56 995.24 996.21 997.09 997.99 998.64 999.53 1000.06 1000.35 1001.00 1001.68 1002.22 1002.82 1003.48 1004.14 1004.63 1004.99 1005.50 1005.95 1006.34 1006.70
1008.50 1008.18 1007.65 1007.32 1006.42 1005.59 1005.36 1005.24 1005.15 1004.56 1003.58 1002.26 1001.74 1000.93 1000.26 998.95 997.99 997.02 995.79 994.66 994.16 994.04 994.20 994.59 995.29 996.39 997.11 997.82 998.28 999.16 999.81 1000.28 1000.97 1001.67 1002.25 1002.85 1003.64 1004.21 1004.66 1005.13 1005.67 1006.18 1006.54 1006.86
1008.19 1007.57 1007.30 1006.45 1005.09 1004.64 1004.45 1004.28 1004.30 1003.83 1002.95 1002.07 1001.41 1000.07 999.17 998.59 997.58 996.39 995.56 994.43 994.04 993.88 994.07 994.50 995.39 996.67 997.20 997.67 998.09 998.57 999.55 1000.11 1000.85 1001.62 1002.28 1002.98 1003.71 1004.33 1004.85 1005.34 1005.77 1006.17 1006.51 1006.81
1008.27 1007.69 1006.77 1005.93 1004.75 1004.08 1003.53 1003.45 1003.17 1002.64 1001.99 1001.29 1000.23 999.78 999.00 997.94 996.63 995.95 995.29 994.29 993.61 993.73 993.91 994.11 995.14 996.22 996.61 997.20 997.92 998.61 999.31 999.95 1000.83 1001.51 1002.26 1003.02 1003.74 1004.30 1004.99 1005.59 1006.12 1006.19 1006.41 1006.52
1007.85 1007.38 1006.98 1006.10 1005.33 1004.50 1003.57 1003.09 1002.76 1002.12 1001.70 1001.02 1000.24 998.87 997.84 997.09 996.14 995.51 994.58 994.00 993.58 993.34 993.05 994.48 995.53 995.90 996.31 996.91 997.60 998.40 999.00 999.72 1000.54 1001.46 1002.23 1002.87 1003.55 1004.24 1004.87 1005.61 1006.33 1006.56 1006.69 1006.83
Wind_Speed
5 5 17 30 25 8 3 11 2 3 5 9 20 21 15 9 11 17 18 20 21 21 15 9 11 10 10 10 10 9 7 7 8 5 4 3 5 5 4 5 7 10 9 10
5 16 10 2 5 5 2 3 1 4 4 2 6 11 9 6 10 11 17 17 16 15 8 11 13 10 9 10 11 8 6 6 7 5 3 4 4 3 3 4 6 7 9 10
7 7 9 9 5 8 5 6 3 2 7 6 5 15 11 7 11 13 16 13 11 13 10 14 13 10 9 10 9 8 5 8 8 8 6 4 5 4 3 2 2 5 8 8
6 6 4 2 6 6 5 7 5 6 5 7 2 15 13 10 15 13 18 18 17 9 13 16 9 12 11 11 5 5 7 8 9 10 8 11 5 5 3 4 3 4 5 5
7 1 4 5 5 7 8 2 4 2 3 3 2 5 7 5 12 17 19 21 19 14 17 13 12 13 10 5 6 6 7 7 8 8 9 7 6 3 4 3 6 4 3 5
5 1 3 5 4 7 4 6 3 3 3 5 6 6 18 10 16 13 14 15 11 10 10 12 10 8 7 2 4 5 7 6 7 8 8 10 11 8 6 4 4 3 2 3
1 6 4 4 2 1 2 5 2 2 3 12 13 10 23 6 3 3 6 7 8 9 9 9 9 7 5 6 6 6 7 8 7 8 8 8 9 9 9 7 5 6 3 2
5 3 5 4 9 6 6 8 6 7 5 5 8 13 12 14 25 22 13 8 7 9 9 10 10 8 7 7 8 8 9 9 8 8 8 7 8 5 4 5 5 4 3 4
5 3 5 6 2 9 5 4 5 3 3 1 5 8 12 14 20 10 5 6 10 10 11 12 8 7 9 10 9 11 10 7 7 7 7 7 7 8 7 7 5 4 4 3
5 3 4 4 3 4 5 5 3 2 4 5 5 6 9 9 8 14 8 8 10 11 11 10 6 9 8 10 9 9 10 10 8 8 7 7 7 6 6 6 6 5 4 5
5 3 6 2 3 4 3 2 2 4 5 4 3 7 8 14 2 5 6 8 10 11 8 3 6 10 9 10 11 10 10 11 9 7 6 8 6 6 6 5 5 5 5 5
3 1 3 6 7 3 1 3 1 4 7 7 4 10 2 6 5 5 8 13 13 5 4 3 6 10 10 11 11 11 10 11 8 7 7 6 6 6 5 5 5 5 6 4
2 2 3 7 1 3 2 2 4 1 0 8 8 8 3 7 13 8 10 14 12 4 3 4 7 8 9 10 10 11 10 9 7 8 7 6 6 6 5 5 5 5 5 5
4 3 5 6 3 2 2 6 7 5 4 7 21 14 19 21 20 15 17 14 9 5 4 6 7 7 7 10 11 10 8 8 7 7 7 6 6 5 5 5 5 5 5 5
4 5 6 10 13 11 10 12 13 13 13 11 15 15 8 19 16 15 12 14 10 6 6 7 8 6 7 9 10 9 8 8 7 7 6 6 5 5 5 5 5 4 5 4
3 3 2 11 12 12 14 14 16 18 20 23 19 21 10 19 17 13 13 11 12 11 11 10 10 10 10 10 11 10 9 8 8 7 6 6 5 5 5 5 5 4 4 4
3 2 1 6 5 7 9 18 18 20 21 17 23 10 8 16 16 14 12 10 13 15 11 14 14 14 11 11 11 11 9 7 7 7 7 6 6 6 5 5 5 4 5 5
5 5 2 5 2 6 7 1 7 16 21 20 14 8 12 14 8 16 16 15 12 12 12 13 13 12 11 9 9 9 8 8 8 7 7 6 6 6 6 5 5 5 4 5
15 7 3 4 4 10 6 7 7 7 6 8 5 6 6 11 13 23 17 14 11 9 11 11 11 11 10 10 10 11 8 8 8 8 8 8 7 7 6 6 6 4 4 4
13 12 6 3 5 5 3 5 10 10 8 6 6 6 9 11 8 10 4 5 8 9 10 11 12 12 11 9 11 11 9 9 9 8 9 8 7 7 7 6 6 3 3 4
3 2 12 11 5 2 1 11 9 7 3 14 7 9 10 9 8 17 19 13 6 6 13 12 14 13 12 10 11 10 9 10 9 8 7 8 7 7 6 5 3 5 5 5
3 3 2 2 5 2 4 7 4 7 15 15 10 8 12 13 14 15 15 9 6 7 9 13 12 11 10 11 12 10 11 8 8 8 8 8 7 6 6 7 4 5 6 6
3 2 4 2 3 10 11 10 11 13 16 7 11 12 11 14 13 15 9 6 5 5 7 8 11 9 9 11 11 12 9 9 9 9 8 7 7 6 6 7 7 5 5 6
4 1 4 7 3 7 5 5 9 10 14 11 12 16 14 15 14 11 7 4 5 7 9 9 11 9 9 9 10 10 10 10 10 9 8 7 7 7 6 6 5 5 5 4
5 5 5 6 9 16 4 12 10 12 12 13 16 14 15 14 13 8 5 3 1 10 10 10 11 11 13 11 9 9 11 12 9 8 8 7 6 6 7 5 3 4 3 4
3 4 3 7 13 11 14 15 13 12 12 15 18 22 20 12 11 7 4 4 3 4 10 10 8 9 10 12 11 10 11 12 11 8 7 7 7 6 6 6 3 8 4 5
Wind_Direction
250 192 205 205 211 201 60 213 134 147 262 186 225 257 257 251 262 268 271 272 275 278 284 269 270 273 279 278 276 250 204 173 141 132 140 126 175 156 153 174 181 180 175 170
258 233 223 160 192 202 116 111 205 285 254 181 283 276 277 242 255 244 252 256 257 269 279 278 274 267 265 264 273 268 216 167 163 148 140 137 138 166 156 166 181 177 172 176
241 275 181 198 173 204 221 205 176 189 324 281 295 285 267 241 233 248 256 253 250 254 253 260 261 266 273 261 266 264 195 169 158 138 116 90 82 72 97 138 148 186 181 172
228 259 158 27 220 152 187 172 168 194 172 247 109 283 263 263 262 253 259 259 257 224 243 251 257 271 268 270 242 199 160 152 150 142 135 149 142 152 165 144 142 145 150 152
239 275 180 171 188 188 221 144 163 184 248 295 199 296 285 218 259 255 253 256 255 225 236 244 243 250 271 263 219 181 151 139 143 132 145 133 109 102 102 106 126 119 131 150
229 311 197 172 193 190 159 139 113 82 119 260 172 179 275 248 250 251 248 263 248 242 243 246 257 261 269 213 163 144 136 123 134 131 137 131 129 127 119 118 122 121 116 122
348 251 218 153 227 43 91 76 93 113 194 233 160 178 241 304 183 237 245 287 276 265 272 268 262 245 230 185 150 136 136 128 131 127 125 130 133 136 144 147 144 145 136 135
175 261 178 192 183 188 173 164 166 173 201 215 151 223 242 235 253 260 277 291 309 296 263 256 248 225 190 162 148 133 133 123 125 123 131 129 129 132 128 134 137 134 149 147
350 309 331 53 50 149 184 161 195 47 278 106 217 287 293 277 282 268 302 338 294 281 281 269 241 182 155 151 144 135 128 114 116 121 120 118 121 124 131 127 119 134 123 142
314 275 114 318 2 261 164 173 116 355 218 240 261 259 237 319 265 277 352 324 307 306 296 279 184 146 140 136 129 122 129 131 127 121 123 126 124 123 123 123 135 134 138 135
16 61 306 5 200 210 34 291 163 162 175 209 294 264 220 224 166 16 297 295 297 301 315 44 132 138 133 129 128 124 124 125 124 125 121 122 124 124 121 132 134 144 136 145
351 82 269 257 266 336 93 266 266 174 243 249 138 269 360 107 86 34 353 335 334 340 355 94 139 140 135 133 129 128 131 134 136 134 125 124 122 125 130 137 144 142 140 151
282 278 309 319 18 63 115 248 227 257 61 235 234 240 239 324 337 0 347 334 334 344 80 132 135 148 142 136 134 132 139 133 133 130 124 127 138 140 142 145 142 145 147 151
223 231 213 202 310 119 269 291 289 214 228 265 243 269 294 304 310 334 331 319 322 286 208 157 149 152 146 142 140 139 129 134 137 132 133 145 158 152 147 147 145 153 153 141
180 258 234 256 267 279 261 265 263 259 255 249 272 268 283 296 307 306 302 300 315 278 221 177 161 156 152 151 142 145 138 143 142 137 146 157 151 139 139 139 147 149 146 159
199 244 260 286 261 256 264 261 258 254 255 259 260 267 267 273 286 287 290 288 298 311 217 188 165 157 164 169 150 153 149 150 143 143 148 143 143 149 146 139 145 145 129 140
208 247 312 265 298 342 285 239 241 243 237 239 239 240 262 265 275 274 271 284 290 298 208 185 176 168 169 171 157 157 157 140 144 143 148 157 158 147 145 132 128 133 131 132
205 174 192 279 338 247 247 179 301 258 243 227 252 224 234 255 287 283 272 273 275 274 199 184 171 169 162 159 154 136 143 148 149 153 152 152 153 147 129 126 136 114 116 128
213 202 229 239 216 277 321 12 5 340 306 244 227 248 292 308 307 275 257 239 242 224 193 180 165 157 146 158 155 143 146 148 149 159 164 166 156 142 139 144 136 125 135 131
203 211 201 191 235 253 63 337 323 304 259 38 347 322 319 311 257 267 276 209 262 190 168 161 154 148 147 158 152 147 154 154 165 167 176 156 148 147 158 150 143 129 143 126
91 199 229 239 261 260 356 320 314 227 356 319 335 321 293 283 265 300 294 279 252 205 163 151 148 154 160 152 153 157 154 175 178 160 147 144 145 152 151 140 124 133 131 125
313 296 272 247 237 313 327 330 297 310 290 296 327 314 305 286 298 288 278 247 244 155 143 156 154 152 145 156 156 156 173 174 145 149 146 143 142 147 146 141 121 127 129 127
298 171 297 211 271 268 293 216 239 271 303 307 318 309 302 307 303 295 280 266 221 162 135 148 144 141 148 161 162 163 179 148 142 145 146 138 133 137 145 138 141 128 132 151
277 220 261 303 263 314 340 311 255 302 296 305 308 316 320 304 296 292 281 293 175 179 152 147 127 154 153 166 167 171 149 149 148 147 142 138 143 141 133 137 148 153 158 146
234 331 295 271 292 321 271 324 325 320 321 329 325 317 298 296 301 285 285 7 215 177 155 143 159 171 173 166 154 147 152 148 150 147 144 146 140 146 141 131 131 160 161 176
224 264 327 314 315 311 301 316 328 320 340 332 323 313 310 297 279 275 10 8 55 136 135 146 179 163 170 168 158 151 156 156 147 145 149 158 153 146 150 143 118 51 24 173